Weather History for Eelde, Netherlands

Change the Weather History Date:

Monday, January 27, 2014

  Actual Average Record
Temperature  
Mean Temperature 32 °F -  
Max Temperature 38 °F 40 °F 50 °F (2002)
Min Temperature 25 °F 29 °F 21 °F (1997)
Degree Days  
Heating Degree Days 34    
Moisture  
Dew Point 33 °F    
Average Humidity 86    
Maximum Humidity 100    
Minimum Humidity 73    
Precipitation  
Precipitation 0.00 in 0.06 in - ()
Sea Level Pressure  
Sea Level Pressure 29.26 in    
Wind  
Wind Speed 10 mph ()    
Max Wind Speed 16 mph    
Max Gust Speed -    
Visibility 7.0 miles    
Events Rain , Snow    
Averages and records for this station are not official NWS values.
T = Trace of Precipitation, MM = Missing Value Source: Averaged Metar Reports

Daily Weather History Graph

Daily Weather History Graph

Search for Another Location

Airport:

Trip Planner

Search our weather history database for the weather conditions in past years. The results will help you decide how hot, cold, wet, or windy it might be!

Date:

Astronomy

Jan. 27, 2014 Rise Set
Actual Time 8:25 AM CET 5:07 PM CET
Civil Twilight 7:46 AM CET 5:46 PM CET
Nautical Twilight 7:04 AM CET 6:28 PM CET
Astronomical Twilight 6:23 AM CET 7:09 PM CET
Moon 4:56 AM CET (1/27) 1:31 PM CET (1/27)
Length of Visible Light 9h 59m
Length of Day
8h 42m
Waning Crescent, 17% of the Moon is Illuminated
Jan 27
Waning Crescent
Jan 30
New
Feb 6
First Quarter
Feb 15
Full
Feb 22
Last Quarter

Hourly Weather History & Observations

Time (CET) Temp. Windchill Dew Point Humidity Pressure Visibility Wind Dir Wind Speed Gust Speed Precip Events Conditions
12:00 AM 32 °F - 32 °F 99% 29.16 in 1 mi ESE 11.2 mph - - Rain Rain Showers
12:25 AM 33.8 °F 25.8 °F 32.0 °F 93% 29.12 in - SE 10.4 mph - N/A   Scattered Clouds
12:55 AM 33.8 °F 25.8 °F 33.8 °F 100% 29.12 in 6.2 mi SSE 10.4 mph - N/A Snow Light Snow Grains
1:00 AM 34 °F - 33 °F 96% 29.14 in 5 mi SSE 8.9 mph - - Rain Light Rain Showers
1:25 AM 33.8 °F 26.4 °F 33.8 °F 100% 29.12 in 5.0 mi SSE 9.2 mph - N/A Rain Light Rain Showers
1:55 AM 33.8 °F 27.7 °F 33.8 °F 100% 29.12 in 5.6 mi South 6.9 mph - N/A Rain Rain
2:00 AM 35 °F - 34 °F 96% 29.13 in 6 mi South 6.7 mph - - Rain Light Drizzle
2:25 AM 35.6 °F 29.2 °F 33.8 °F 93% 29.12 in 5.6 mi SSW 8.1 mph - N/A   Partly Cloudy
2:55 AM 35.6 °F 27.5 °F 33.8 °F 93% 29.12 in 6.2 mi SW 11.5 mph - N/A   Partly Cloudy
3:00 AM 35 °F - 34 °F 96% 29.15 in 6 mi SW 11.2 mph - - Rain Drizzle
3:25 AM 35.6 °F 28.0 °F 33.8 °F 93% 29.12 in 6.2 mi SW 10.4 mph - N/A   Partly Cloudy
3:55 AM 35.6 °F 28.0 °F 33.8 °F 93% 29.15 in 6.2 mi SW 10.4 mph - N/A   Scattered Clouds
4:00 AM 35 °F - 34 °F 93% 29.16 in 6 mi SW 8.9 mph - -   Partly Cloudy
4:25 AM 35.6 °F 27.1 °F 33.8 °F 93% 29.15 in 6.2 mi SW 12.7 mph - N/A   Scattered Clouds
4:55 AM 37.4 °F 29.3 °F 35.6 °F 93% 29.15 in 6.2 mi SW 12.7 mph - N/A   Mostly Cloudy
5:00 AM 37 °F - 34 °F 84% 29.18 in 7 mi WSW 11.2 mph - -   Partly Cloudy
5:25 AM 35.6 °F 27.5 °F 32.0 °F 87% 29.18 in 6.2 mi SW 11.5 mph - N/A   Unknown
5:55 AM 35.6 °F 27.5 °F 33.8 °F 93% 29.18 in 6.2 mi SW 11.5 mph - N/A   Partly Cloudy
6:00 AM 36 °F - 33 °F 87% 29.21 in 6 mi SW 11.2 mph - -   Partly Cloudy
6:25 AM 35.6 °F 27.5 °F 33.8 °F 93% 29.21 in 6.2 mi SW 11.5 mph - N/A   Partly Cloudy
6:55 AM 35.6 °F 28.6 °F 33.8 °F 93% 29.21 in 6.2 mi SSW 9.2 mph - N/A   Mostly Cloudy
7:00 AM 35 °F - 33 °F 89% 29.22 in 6 mi SSW 8.9 mph - -   Partly Cloudy
7:25 AM 35.6 °F 28.6 °F 33.8 °F 93% 29.21 in 6.2 mi SSW 9.2 mph - N/A   Unknown
7:55 AM 35.6 °F 27.5 °F 32.0 °F 87% 29.21 in 6.2 mi SSW 11.5 mph - N/A   Partly Cloudy
8:00 AM 35 °F - 33 °F 88% 29.24 in 7 mi SSW 11.2 mph - -  
8:25 AM 35.6 °F 27.5 °F 33.8 °F 93% 29.24 in 6.2 mi SSW 11.5 mph - N/A   Scattered Clouds
8:55 AM 35.6 °F 27.1 °F 32.0 °F 87% 29.24 in 6.2 mi SSW 12.7 mph - N/A   Unknown
9:00 AM 35 °F - 33 °F 87% 29.26 in 8 mi SSW 13.4 mph - -  
9:25 AM 35.6 °F 27.1 °F 32.0 °F 87% 29.24 in 6.2 mi SSW 12.7 mph - N/A   Unknown
9:55 AM 35.6 °F 27.1 °F 32.0 °F 87% 29.27 in 6.2 mi SSW 12.7 mph - N/A   Unknown
10:00 AM 36 °F - 32 °F 80% 29.28 in 9 mi SSW 15.7 mph - -  
10:25 AM 35.6 °F 26.6 °F 32.0 °F 87% 29.27 in 6.2 mi SSW 13.8 mph - N/A   Partly Cloudy
10:55 AM 35.6 °F 26.2 °F 32.0 °F 87% 29.27 in 6.2 mi SSW 15.0 mph - N/A   Unknown
11:00 AM 36 °F - 33 °F 83% 29.29 in 11 mi SSW 15.7 mph - -   Scattered Clouds
11:25 AM 35.6 °F 25.9 °F 32.0 °F 87% 29.27 in 6.2 mi SSW 16.1 mph - N/A   Partly Cloudy
11:55 AM 37.4 °F 28.9 °F 33.8 °F 87% 29.30 in 6.2 mi SSW 13.8 mph - N/A   Overcast
12:00 PM 37 °F - 33 °F 80% 29.30 in 10 mi South 13.4 mph - -   Overcast
12:25 PM 37.4 °F 28.9 °F 33.8 °F 87% 29.30 in 6.2 mi South 13.8 mph - N/A   Mostly Cloudy
12:55 PM 37.4 °F 28.9 °F 32.0 °F 81% 29.30 in 6.2 mi South 13.8 mph - N/A   Unknown
1:00 PM 37 °F - 33 °F 79% 29.30 in 9 mi South 13.4 mph - -   Partly Cloudy
1:25 PM 37.4 °F 29.3 °F 33.8 °F 87% 29.30 in 6.2 mi South 12.7 mph - N/A   Scattered Clouds
1:55 PM 39.2 °F 31.6 °F 33.8 °F 81% 29.30 in 6.2 mi South 12.7 mph - N/A   Partly Cloudy
2:00 PM 38 °F - 33 °F 75% 29.30 in 10 mi South 11.2 mph - -   Scattered Clouds
2:25 PM 39.2 °F 33.0 °F 33.8 °F 81% 29.30 in 6.2 mi South 9.2 mph - N/A   Mostly Cloudy
2:55 PM 37.4 °F 30.3 °F 33.8 °F 87% 29.30 in 6.2 mi South 10.4 mph - N/A   Mostly Cloudy
3:00 PM 38 °F - 33 °F 75% 29.31 in 12 mi South 11.2 mph - -   Partly Cloudy
3:25 PM 37.4 °F 30.8 °F 32.0 °F 81% 29.30 in 6.2 mi South 9.2 mph - N/A   Mostly Cloudy
3:55 PM 37.4 °F 30.3 °F 32.0 °F 81% 29.30 in 6.2 mi South 10.4 mph - N/A   Overcast
4:00 PM 38 °F - 32 °F 73% 29.31 in 16 mi South 8.9 mph - -   Overcast
4:25 PM 37.4 °F 29.8 °F 32.0 °F 81% 29.30 in 6.2 mi SSE 11.5 mph - N/A   Overcast
4:55 PM 37.4 °F 30.8 °F 32.0 °F 81% 29.30 in 6.2 mi SSE 9.2 mph - N/A   Overcast
5:00 PM 37 °F - 32 °F 74% 29.32 in 19 mi SSE 8.9 mph - -   Overcast
5:25 PM 37.4 °F 30.8 °F 32.0 °F 81% 29.30 in 6.2 mi SSE 9.2 mph - N/A   Mostly Cloudy
5:55 PM 37.4 °F 30.3 °F 32.0 °F 81% 29.33 in 6.2 mi SSE 10.4 mph - N/A   Partly Cloudy
6:00 PM 37 °F - 31 °F 73% 29.33 in 25 mi South 11.2 mph - -   Overcast
6:25 PM 37.4 °F 30.8 °F 32.0 °F 81% 29.33 in 6.2 mi SSE 9.2 mph - N/A   Overcast
6:55 PM 37.4 °F 30.8 °F 32.0 °F 81% 29.33 in 6.2 mi SE 9.2 mph - N/A   Overcast
7:00 PM 37 °F - 32 °F 75% 29.33 in 22 mi SE 8.9 mph - -   Partly Cloudy
7:25 PM 37.4 °F 30.8 °F 32.0 °F 81% 29.33 in 6.2 mi SE 9.2 mph - N/A   Overcast
7:55 PM 37.4 °F 30.3 °F 32.0 °F 81% 29.33 in 6.2 mi SSE 10.4 mph - N/A   Overcast
8:00 PM 37 °F - 32 °F 75% 29.33 in 22 mi SSE 11.2 mph - -   Scattered Clouds
8:25 PM 37.4 °F 29.8 °F 32.0 °F 81% 29.30 in 6.2 mi SSE 11.5 mph - N/A   Scattered Clouds
8:55 PM 37.4 °F 29.3 °F 32.0 °F 81% 29.30 in 6.2 mi SSE 12.7 mph - N/A   Mostly Cloudy
9:00 PM 37 °F - 32 °F 77% 29.33 in 14 mi SSE 13.4 mph - - Rain Light Rain
9:25 PM 37.4 °F 29.8 °F 32.0 °F 81% 29.33 in 6.2 mi SSE 11.5 mph - N/A   Drizzle
9:55 PM 37.4 °F 29.8 °F 33.8 °F 87% 29.33 in 6.2 mi SSE 11.5 mph - N/A   Light Drizzle
10:00 PM 37 °F - 33 °F 81% 29.34 in 9 mi SSE 11.2 mph - - Rain Light Drizzle
10:25 PM 37.4 °F 29.3 °F 33.8 °F 87% 29.33 in 6.2 mi SSE 12.7 mph - N/A   Overcast
10:55 PM 37.4 °F 29.8 °F 33.8 °F 87% 29.33 in 6.2 mi SSE 11.5 mph - N/A   Overcast
11:00 PM 37 °F - 34 °F 83% 29.35 in 11 mi SSE 11.2 mph - - Rain Drizzle
11:25 PM 37.4 °F 30.3 °F 33.8 °F 87% 29.33 in 6.2 mi SSE 10.4 mph - N/A   Overcast
11:55 PM 37.4 °F 30.3 °F 33.8 °F 87% 29.36 in 6.2 mi SSE 10.4 mph - N/A   Overcast